Regional Weather Roundup
Issued by NWS Cleveland, OH

Home | Current Version | Previous Version | Graphics & Text | Print | Product List | Glossary On
Versions: 1 2 3 4 5 6 7 8 9 10 11 12 13 14 15 16 17 18 19 20 21 22 23 24 25 26 27 28 29 30 31 32 33 34 35 36 37 38 39 40 41 42 43 44 45 46 47 48 49 50
000
ASUS41 KCLE 220800
RWRCLE
OHIO REGIONAL WEATHER ROUNDUP
NATIONAL WEATHER SERVICE WILMINGTON, OH
400 AM EDT TUE MAY 22 2018

NOTE: "FAIR" INDICATES FEW OR NO CLOUDS BELOW 12,000 FEET WITH NO
SIGNIFICANT WEATHER AND/OR OBSTRUCTIONS TO VISIBILITY.

OHZ001>008-015>018-024>027-034-035-043-044-220900-
   NORTHWEST OHIO

CITY           SKY/WX    TMP DP  RH WIND       PRES   REMARKS
DEFIANCE       FAIR      55  53  93 CALM      29.99S
FINDLAY        MOCLDY    64  62  93 S3        29.98S
TOLEDO EXPRESS MOCLDY    54  54 100 CALM      29.97F FOG
TOLEDO EXEC    MOCLDY    56  53  90 CALM      29.99F
LIMA           MOCLDY    65  64  97 SW8       30.00S
$$

OHZ009>014-019>023-028>033-038-089-220900-
   NORTHEAST OHIO

CITY           SKY/WX    TMP DP  RH WIND       PRES   REMARKS
CLE-HOPKINS    LGT RAIN  66  63  90 S13       30.00F
CLE-LAKEFRONT  CLOUDY    66  62  87 S10       29.97F
CUY CO. ARPT   NOT AVBL
LORAIN-ELYRIA  CLOUDY    64  59  83 S9        29.99F
ASHTABULA      CLOUDY    64  63  96 S10       30.02F
AKRON-CANTON   LGT RAIN  65  62  90 S6        30.03F
WOOSTER        NOT AVBL
MANSFIELD      FAIR      64  64 100 S10       30.01F
YOUNGSTOWN     LGT RAIN  63  62  97 S6        30.03F
$$

OHZ042-051>053-060>062-070>072-077>081-220900-
  SOUTHWEST OHIO

CITY           SKY/WX    TMP DP  RH WIND       PRES   REMARKS
CINC-COVINGTON CLOUDY    67  65  93 S6        30.02S
CINC-LUNKEN    CLOUDY    68  68 100 SW5       30.03R
HAMILTON       CLOUDY    68  68 100 CALM      30.03R
DAYTON         NOT AVBL
WRIGHT-PAT AFB NOT AVBL
DAYTON GENERAL CLOUDY    68  65  90 SW3       30.01F
WILMINGTON     LGT RAIN  66  66 100 SE6       30.02F
$$

OHZ036-037-039>041-045>050-054>059-063>069-073>076-082>088-220900-
  CENTRAL AND SOUTHEAST OHIO

CITY           SKY/WX    TMP DP  RH WIND       PRES   REMARKS
COLUMBUS       CLOUDY    66  64  93 S9        30.03R
OSU AIRPORT    CLOUDY    66  65  96 S8        30.02S
BOLTON FIELD   NOT AVBL
RICKENBACK AFB NOT AVBL
NEWARK         FAIR      65  63  93 CALM      30.03S
MARION         MOCLDY    65  64  97 S8        30.01S
LANCASTER      CLOUDY    65  65 100 S5        30.05S
ZANESVILLE     LGT RAIN  65  63  93 SE6       30.04F
NEW PHILLY     LGT RAIN  65  64  97 SE6       30.03F
$$




USA.gov is the U.S. government's official web portal to all federal, state and local government web resources and services.